Weather History for Sand Point, AK

Change the Weather History Date:

Friday, November 2, 2012

  Actual Average Record
Temperature  
Mean Temperature 36 °F -  
Max Temperature 37 °F 41 °F 51 °F (2003)
Min Temperature 35 °F 35 °F 24 °F (1985)
Degree Days  
Heating Degree Days 29    
Moisture  
Dew Point 27 °F    
Average Humidity 71    
Maximum Humidity 75    
Minimum Humidity 65    
Precipitation  
Precipitation 0.00 in - - ()
Sea Level Pressure  
Sea Level Pressure 29.22 in    
Wind  
Wind Speed 30 mph (NNW)    
Max Wind Speed 38 mph    
Max Gust Speed 47 mph    
Visibility 10 miles    
Events      
Averages and records for this station are not official NWS values.
T = Trace of Precipitation, MM = Missing Value Source: NWS Daily Summary

Daily Weather History Graph

Daily Weather History Graph

Search for Another Location

Airport:

Trip Planner

Search our weather history database for the weather conditions in past years. The results will help you decide how hot, cold, wet, or windy it might be!

Date:

Astronomy

Nov. 02, 2012 Rise Set
Actual Time 9:50 AM AKDT 6:59 PM AKDT
Civil Twilight 9:11 AM AKDT 7:39 PM AKDT
Nautical Twilight 8:27 AM AKDT 8:22 PM AKDT
Astronomical Twilight 7:45 AM AKDT 9:04 PM AKDT
Moon 9:35 PM AKDT (11/2) 1:42 PM AKDT (11/2)
Length of Visible Light 10h 27m
Length of Day
9h 09m
Waning Gibbous, 86% of the Moon is Illuminated
Nov 2
Waning Gibbous
Nov 6
Last Quarter
Nov 13
New
Nov 20
First Quarter
Nov 28
Full

Hourly Weather History & Observations

Time (AKDT) Temp. Windchill Dew Point Humidity Pressure Visibility Wind Dir Wind Speed Gust Speed Precip Events Conditions
12:16 AM 37.4 °F 24.4 °F 28.4 °F 70% 29.33 in 10.0 mi NNW 33.4 mph 41.4 mph N/A   Mostly Cloudy
12:36 AM 37.4 °F 24.4 °F 28.4 °F 70% 29.32 in 10.0 mi North 33.4 mph 40.3 mph N/A   Overcast
12:56 AM 37.4 °F 25.4 °F 28.4 °F 70% 29.32 in 10.0 mi North 27.6 mph 39.1 mph N/A   Overcast
1:16 AM 37.4 °F 25.2 °F 28.4 °F 70% 29.32 in 10.0 mi North 28.8 mph 36.8 mph N/A   Overcast
1:36 AM 37.4 °F 25.6 °F 28.4 °F 70% 29.32 in 10.0 mi North 26.5 mph 33.4 mph N/A   Overcast
1:56 AM 37.4 °F 25.6 °F 30.2 °F 75% 29.32 in 10.0 mi NNW 26.5 mph 34.5 mph N/A   Overcast
2:16 AM 35.6 °F 22.1 °F 28.4 °F 75% 29.31 in 10.0 mi North 32.2 mph 43.7 mph N/A   Overcast
2:36 AM 35.6 °F 22.5 °F 28.4 °F 75% 29.30 in 10.0 mi NNW 29.9 mph 40.3 mph N/A   Overcast
2:56 AM 35.6 °F 22.5 °F 28.4 °F 75% 29.30 in 10.0 mi North 29.9 mph 38.0 mph N/A   Mostly Cloudy
3:16 AM 35.6 °F 21.9 °F 28.4 °F 75% 29.29 in 10.0 mi North 33.4 mph 39.1 mph N/A   Partly Cloudy
3:36 AM 35.6 °F 22.1 °F 28.4 °F 75% 29.29 in 10.0 mi North 32.2 mph 39.1 mph N/A   Mostly Cloudy
3:56 AM 35.6 °F 22.1 °F 28.4 °F 75% 29.28 in 10.0 mi North 32.2 mph 39.1 mph N/A   Overcast
4:16 AM 35.6 °F 22.5 °F 28.4 °F 75% 29.28 in 10.0 mi North 29.9 mph 41.4 mph N/A   Overcast
4:36 AM 35.6 °F 22.5 °F 28.4 °F 75% 29.27 in 10.0 mi North 29.9 mph 41.4 mph N/A   Overcast
4:56 AM 35.6 °F 21.9 °F 28.4 °F 75% 29.26 in 10.0 mi NNW 33.4 mph 41.4 mph N/A   Overcast
5:16 AM 35.6 °F 21.5 °F 28.4 °F 75% 29.25 in 10.0 mi NNW 35.7 mph 46.0 mph N/A   Mostly Cloudy
5:36 AM 35.6 °F 21.5 °F 28.4 °F 75% 29.24 in 10.0 mi NNW 35.7 mph 47.2 mph N/A   Mostly Cloudy
5:56 AM 35.6 °F 21.9 °F 28.4 °F 75% 29.24 in 10.0 mi NNW 33.4 mph 42.6 mph N/A   Mostly Cloudy
6:16 AM 35.6 °F 21.7 °F 28.4 °F 75% 29.24 in 10.0 mi North 34.5 mph 42.6 mph N/A   Scattered Clouds
6:36 AM 35.6 °F 22.1 °F 28.4 °F 75% 29.23 in 10.0 mi North 32.2 mph 43.7 mph N/A   Clear
6:56 AM 35.6 °F 21.5 °F 28.4 °F 75% 29.23 in 10.0 mi NNW 35.7 mph 46.0 mph N/A   Scattered Clouds
7:16 AM 35.6 °F 21.3 °F 26.6 °F 70% 29.23 in 10.0 mi NNW 36.8 mph 43.7 mph N/A   Overcast
7:36 AM 35.6 °F 21.7 °F 26.6 °F 70% 29.24 in 10.0 mi NNW 34.5 mph 43.7 mph N/A   Overcast
7:56 AM 35.6 °F 21.5 °F 26.6 °F 70% 29.23 in 10.0 mi NNW 35.7 mph 43.7 mph N/A   Overcast
8:16 AM 35.6 °F 22.1 °F 26.6 °F 70% 29.23 in 10.0 mi NNW 32.2 mph 39.1 mph N/A   Overcast
8:36 AM 35.6 °F 21.7 °F 26.6 °F 70% 29.22 in 10.0 mi NNW 34.5 mph 43.7 mph N/A   Overcast
8:56 AM 35.6 °F 21.1 °F 26.6 °F 70% 29.22 in 10.0 mi NNW 38.0 mph 42.6 mph N/A   Mostly Cloudy
9:16 AM 35.6 °F 21.7 °F 26.6 °F 70% 29.21 in 10.0 mi North 34.5 mph 44.9 mph N/A   Mostly Cloudy
9:36 AM 35.6 °F 23.4 °F 24.8 °F 65% 29.22 in 10.0 mi North 25.3 mph 38.0 mph N/A   Mostly Cloudy
9:56 AM 35.6 °F 23.2 °F 24.8 °F 65% 29.21 in 10.0 mi North 26.5 mph 35.7 mph N/A   Mostly Cloudy
10:16 AM 35.6 °F 23.2 °F 24.8 °F 65% 29.21 in 10.0 mi NNW 26.5 mph 34.5 mph N/A   Mostly Cloudy
10:36 AM 35.6 °F 22.7 °F 24.8 °F 65% 29.21 in 10.0 mi North 28.8 mph 41.4 mph N/A   Mostly Cloudy
10:56 AM 35.6 °F 21.9 °F 26.6 °F 70% 29.20 in 10.0 mi North 33.4 mph 41.4 mph N/A   Mostly Cloudy
11:16 AM 35.6 °F 21.7 °F 24.8 °F 65% 29.20 in 10.0 mi NNW 34.5 mph 41.4 mph N/A   Mostly Cloudy
11:36 AM 35.6 °F 22.7 °F 26.6 °F 70% 29.20 in 10.0 mi NNW 28.8 mph 41.4 mph N/A   Mostly Cloudy
11:56 AM 35.6 °F 21.9 °F 26.6 °F 70% 29.19 in 10.0 mi NNW 33.4 mph 43.7 mph N/A   Clear
12:16 PM 35.6 °F 21.1 °F 24.8 °F 65% 29.18 in 10.0 mi NNW 38.0 mph 46.0 mph N/A   Mostly Cloudy
12:36 PM 35.6 °F 21.7 °F 24.8 °F 65% 29.18 in 10.0 mi NNW 34.5 mph 41.4 mph N/A   Mostly Cloudy
12:56 PM 35.6 °F 22.7 °F 26.6 °F 70% 29.18 in 10.0 mi North 28.8 mph 39.1 mph N/A   Mostly Cloudy
1:16 PM 35.6 °F 23.2 °F 26.6 °F 70% 29.19 in 10.0 mi North 26.5 mph 42.6 mph N/A   Mostly Cloudy
1:36 PM 35.6 °F 22.7 °F 26.6 °F 70% 29.18 in 10.0 mi North 28.8 mph 34.5 mph N/A   Mostly Cloudy
1:56 PM 35.6 °F 22.1 °F 26.6 °F 70% 29.17 in 10.0 mi North 32.2 mph 36.8 mph N/A   Mostly Cloudy
2:16 PM 35.6 °F 22.3 °F 26.6 °F 70% 29.17 in 10.0 mi NNW 31.1 mph 35.7 mph N/A   Mostly Cloudy
2:36 PM 35.6 °F 23.2 °F 26.6 °F 70% 29.17 in 10.0 mi NNW 26.5 mph 33.4 mph N/A   Mostly Cloudy
2:56 PM 35.6 °F 22.5 °F 26.6 °F 70% 29.17 in 10.0 mi NNW 29.9 mph 36.8 mph N/A   Mostly Cloudy
3:16 PM 35.6 °F 23.2 °F 26.6 °F 70% 29.17 in 10.0 mi North 26.5 mph 33.4 mph N/A   Mostly Cloudy
3:36 PM 35.6 °F 22.7 °F 26.6 °F 70% 29.17 in 10.0 mi North 28.8 mph 35.7 mph N/A   Mostly Cloudy
3:56 PM 35.6 °F 23.7 °F 26.6 °F 70% 29.17 in 10.0 mi NNW 24.2 mph 32.2 mph N/A   Mostly Cloudy
4:16 PM 35.6 °F 23.7 °F 26.6 °F 70% 29.17 in 10.0 mi North 24.2 mph - N/A   Mostly Cloudy
4:36 PM 37.4 °F 25.2 °F 28.4 °F 70% 29.17 in 10.0 mi NNW 28.8 mph 35.7 mph N/A   Mostly Cloudy
4:56 PM 35.6 °F 23.0 °F 26.6 °F 70% 29.17 in 10.0 mi NNW 27.6 mph 31.1 mph N/A   Mostly Cloudy
5:16 PM 35.6 °F 22.7 °F 26.6 °F 70% 29.17 in 10.0 mi NNW 28.8 mph 33.4 mph N/A   Mostly Cloudy
5:36 PM 35.6 °F 23.2 °F 26.6 °F 70% 29.16 in 10.0 mi NNW 26.5 mph 34.5 mph N/A   Mostly Cloudy
5:56 PM 35.6 °F 23.2 °F 26.6 °F 70% 29.17 in 10.0 mi NNW 26.5 mph 32.2 mph N/A   Mostly Cloudy
6:16 PM 35.6 °F 22.1 °F 26.6 °F 70% 29.17 in 10.0 mi NNW 32.2 mph 43.7 mph N/A   Mostly Cloudy
6:36 PM 35.6 °F 23.0 °F 26.6 °F 70% 29.19 in 10.0 mi NNW 27.6 mph 36.8 mph N/A   Mostly Cloudy
6:56 PM 35.6 °F 24.2 °F 26.6 °F 70% 29.19 in 10.0 mi North 21.9 mph 28.8 mph N/A   Mostly Cloudy
7:16 PM 35.6 °F 24.8 °F 26.6 °F 70% 29.20 in 10.0 mi NNW 19.6 mph 27.6 mph N/A   Mostly Cloudy
7:36 PM 35.6 °F 23.7 °F 26.6 °F 70% 29.21 in 10.0 mi NNW 24.2 mph 29.9 mph N/A   Mostly Cloudy
7:56 PM 35.6 °F 25.2 °F 26.6 °F 70% 29.21 in 10.0 mi NNW 18.4 mph 27.6 mph N/A   Mostly Cloudy
8:16 PM 35.6 °F 24.2 °F 26.6 °F 70% 29.21 in 10.0 mi NNW 21.9 mph 27.6 mph N/A   Overcast
8:36 PM 35.6 °F 24.8 °F 26.6 °F 70% 29.22 in 10.0 mi NNW 19.6 mph 29.9 mph N/A   Overcast
8:56 PM 35.6 °F 25.2 °F 26.6 °F 70% 29.21 in 10.0 mi NNW 18.4 mph - N/A   Mostly Cloudy
9:16 PM 35.6 °F 24.5 °F 26.6 °F 70% 29.22 in 10.0 mi NNW 20.7 mph 29.9 mph N/A   Mostly Cloudy
9:36 PM 35.6 °F 24.2 °F 26.6 °F 70% 29.22 in 10.0 mi NNW 21.9 mph 28.8 mph N/A   Overcast
9:56 PM 35.6 °F 24.2 °F 28.4 °F 75% 29.23 in 10.0 mi NNW 21.9 mph 31.1 mph N/A   Overcast
10:16 PM 35.6 °F 24.0 °F 28.4 °F 75% 29.22 in 10.0 mi NNW 23.0 mph 28.8 mph N/A   Overcast
10:36 PM 35.6 °F 23.4 °F 28.4 °F 75% 29.22 in 10.0 mi North 25.3 mph 31.1 mph N/A   Mostly Cloudy
11:16 PM 35.6 °F 23.2 °F 28.4 °F 75% 29.23 in 10.0 mi North 26.5 mph 32.2 mph N/A   Overcast
11:36 PM 35.6 °F 23.0 °F 28.4 °F 75% 29.22 in 10.0 mi NNW 27.6 mph 38.0 mph N/A   Overcast
11:56 PM 35.6 °F 23.4 °F 28.4 °F 75% 29.23 in 10.0 mi NNW 25.3 mph 31.1 mph N/A   Overcast